Tracking 18843 objects as of 20-November-2017
HD Live streaming from Space Station
objects crossing your sky now

RESURS O1 DEB

Track RESURS O1 DEB now!
10-day predictions


NORAD ID: 23346
Int'l Code: 1994-074E
Perigee: 656.8 km
Apogee: 918.0 km
Inclination: 98.4 °
Period: 100.5 minutes
Semi major axis: 7158 km
RCS: 0.0836 m2 (small)
Launch date: November 4, 1994
Source: Commonwealth of Independent States (former USSR) (CIS)
Launch site: TYURATAM MISSILE AND SPACE COMPLEX (TTMTR)

Note: This is SATELLITE DEBRIS
aabbcc
Your satellite tracking list
Your tracking list is empty




NASA's NSSDC Master Catalog

Two Line Element Set (TLE):
1 23346U 94074E   17324.37793076 +.00000156 +00000-0 +60961-4 0  9999
2 23346 098.3535 085.2499 0182458 039.0303 322.3886 14.33428396202229
Source of the keplerian elements: AFSPC